User: anonymous   Login
Location: Melbourne
(37.8170°S, 144.9670°E)
Time: 02:01:33
(UTC+11:00)
Language:

Cosmos 962 Rocket - Orbit

View from above orbital plane
View from above orbital plane
View from above satellite
View from above satellite

Ground track
Ground track

The orbit data is extracted from the following two-line orbital elements,

1 10461U 77107B   14304.14659449  .00000109  00000-0  95938-4 0  6713
2 10461 082.9510 006.0895 0032041 315.8916 101.5352 13.76703835858674
Epoch (UTC): 31 October 2014 03:31:05
Eccentricity: 0.0032041
inclination: 82.9510°
perigee height: 952 km
apogee height: 999 km
right ascension of ascending node: 6.0895°
argument of perigee: 315.8916°
revolutions per day: 13.76703835
mean anomaly at epoch: 101.5352°
orbit number at epoch: 85867

The dashed part of the orbit path shows where the satellite is in the earth's shadow,  

DLR